Regional Weather Roundup
Issued by NWS State College, PA

Home | Current Version | Previous Version | Graphics & Text | Print | Product List | Glossary Off
Versions: 1 2 3 4 5 6 7 8 9 10 11 12 13 14 15 16 17 18 19 20 21 22 23 24 25 26 27 28 29 30 31 32 33 34 35 36 37 38 39 40 41 42 43 44 45 46 47 48 49 50

000
ASUS41 KCTP 301703
RWRCTP

REGIONAL WEATHER ROUNDUP
NATIONAL WEATHER SERVICE STATE COLLEGE PA
100 PM EDT THU JUL 30 2015

Note: "fair" indicates few or no clouds below 12,000 feet with no
significant weather and/or obstructions to visibility.

* = STATION THAT DOES NOT REPORT PRECIPITATION /E.G. RAIN...SNOW...ETC/
    THUNDER OR FOG.

PAZ002>004-007>009-013>016-020>023-029>032-301800-
WESTERN PENNSYLVANIA

CITY           SKY/WX    TMP DP  RH WIND       PRES   REMARKS
ERIE           SUNNY     81  63  54 W9        29.95S
MEADVILLE      HVY RAIN  82  56  40 W15G21    29.99S
FRANKLIN*      PTSUNNY   81  57  44 W8G20     30.00S
NEW CASTLE     FAIR      84  57  39 NW10G20   30.00R
BEAVER COUNTY  SUNNY     82  54  36 W10G16    30.00S
BUTLER*        SUNNY     82  57  42 NW9       30.00F
PITTSBURGH INT MOSUNNY   84  53  34 W9        29.99F
PITTSBURGH     SUNNY     83  47  28 W15G21    29.99S
INDIANA*       SUNNY     81  57  44 W13       30.01F
LATROBE        MOSUNNY   82  54  36 NW12G17   29.99F
WASHINGTON CO* NOT AVBL
$$

PAZ004>006-010>012-017>019-024>028-033>037-041-042-045-046-049>053-301800-
CENTRAL PENNSYLVANIA

CITY           SKY/WX    TMP DP  RH WIND       PRES   REMARKS
BRADFORD       SUNNY     78  55  44 NW14G22   29.98S
DUBOIS           N/A     82  56  40 W14G20    29.98S
CLEARFIELD     SUNNY     83  56  39 W10       29.96F
JOHNSTOWN      MOSUNNY   78  57  48 W14G21    30.01F
ALTOONA        PTSUNNY   80  63  55 NW10      29.97F
STATE COLLEGE  MOSUNNY   81  70  69 W12       29.93F
WILLIAMSPORT   PTSUNNY   84  71  65 W13       29.86F
SELINSGROVE    CLOUDY    80  74  81 SW5       29.88F
FT INDIANTOWN  LGT RAIN  80  74  84 W8        29.88F
CAPITAL CITY   CLOUDY    83  73  72 CALM      29.88F
HARRISBURG     CLOUDY    80  73  79 CALM      29.87F
YORK           CLOUDY    79  74  84 CALM      29.90F
$$

PAZ038>040-043-044-047-048-054-055-060>062-067>071-301800-
EASTERN PENNSYLVANIA

CITY           SKY/WX    TMP DP  RH WIND       PRES   REMARKS
SCRANTON       LGT RAIN  79  73  83 W7        29.89S FOG
MOUNT POCONO     N/A    N/A N/A N/A MISG      29.94F
ALLENTOWN      CLOUDY    85  75  72 SW9       29.86F
QUAKERTOWN*    CLOUDY    84  75  74 SW9       29.89F
READING        RAIN      83  75  77 W6        29.85F
LANCASTER      TSTM      75  71  87 NW28G39   29.87F VSB 3/4
COATESVILLE    PTSUNNY   82  77  83 SW6       29.90F
POTTSTOWN      CLOUDY    85  76  74 S8        29.88F
BLUE BELL      PTSUNNY   86  77  74 SW8       29.87F HX  97
DOYLESTOWN     PTSUNNY   85  74  69 VRB7      29.87F
WILLOW GROVE   NOT AVBL
NORTH PHILA    PTSUNNY   89  71  55 SW12      29.89F HX  95
PHILADELPHIA   PTSUNNY   88  74  63 S16       29.88F HX  96
$$



USA.gov is the U.S. government's official web portal to all federal, state and local government web resources and services.